NOAA 16 DEB

基本信息
目录编号:
42413
目录名称:
NOAA 16 DEB
国际标识:
2000-055TH
轨道中心:
EARTH
物体状态:
在轨
发射日期:
2000-09-21 UTC
轨道信息
数据来源: 国际轨道数据
星历时间: 2026-07-13T18:42:58+0800
半长轴: 7109.125km
偏心率: 0.0021637
轨道倾角: 98.942°
近地点辐角: 44.823°
升交点赤经: 6.688°
平近点角: 315.470°
近地点: 715.605km
远地点: 746.371km
周期: 99.422分钟
每日圈数: 14.483669
详细信息
发射场:
AFWTR
轨道高度:
LEO
数据来源:
AOE Integration Group
参考系:
TEME
时间系统:
UTC
历元类型:
SGP4
2D轨道图
3D轨道图
轨道高度分析图
轨道倾角分析图
轨道综合分析图
查看轨道综合分析图